VIZARD-METEO (RS38S)

Last updated on Wed Nov 05 2025 00:03:09 GMT+0000 (Coordinated Universal Time)

1 57189U 23091Z 25308.60570904 .00016519 00000+0 61220-3 0 9999 2 57189 97.5427 9.5428 0009573 143.0096 217.1804 15.27667243130304
UTC large
Height (km)
Speed (km/s)
/
Latitude / Longitude
Inclination (degrees)
Orbital Period (minutes)
Azimuth
Elevation
Range (km)
Doppler Factor

Next 0 passes for location: London (51.5072 / 0.1276)

Sorry there are no passes over London.